Location: Peebles
(55.6412°N, 3.1714°W)
Time: 18:13:17
(UTC+01:00)

ISS - Pass Details

Date: 29 September 2021
Orbit: 417 x 423 km, 51.6° (Epoch: 23 October)

Event Time Altitude Azimuth Distance (km) Brightness Sun altitude
Rises 20:46:54 0° 273° (W) 2,366 1.5 -16.7°
Reaches altitude 10° 20:49:13 10° 259° (W) 1,501 -0.1 -17.0°
Maximum altitude 20:52:02 25° 203° (SSW) 898 -2.1 -17.3°
Enters shadow 20:52:48 23° 180° (S) 956 -2.2 -17.4°
